Location: Newark
(45.2500°N, 7.5833°E)
Time: 21:04:53
(UTC+00:00)

Vanguard 3 - Pass Details

Date: 02 February 2020
Orbit: 508 x 3263 km, 33.3° (Epoch: 22 February)

Event Time Altitude Azimuth Distance (km) Brightness Sun altitude
Rises 19:08:57 0° 273° (W) 7,074 13.3 -26.8°
Reaches altitude 10° 19:13:53 10° 268° (W) 6,168 12.6 -27.7°
Maximum altitude 19:31:51 44° 206° (SSW) 3,777 10.5 -30.8°
Enters shadow 19:41:38 24° 152° (SSE) 4,247 10.4 -32.5°
Drops below altitude 10° 19:46:04 10° 140° (SE) 4,941 - -33.3°
Sets 19:49:32 0° 134° (SE) 5,617 - -33.9°
